Time,TemperatureF,DewpointF,PressureIn,WindDirection,WindDirectionDegrees,WindSpeedMPH,WindSpeedGustMPH,Humidity,HourlyPrecipIn,Conditions,Clouds,dailyrainin,SoftwareType,DateUTC
2013-02-07 00:02:00,32.0,28.0,30.10,SE,142,10.0,15.0,85,0.00,,,0.00,,2013-02-07 06:02:00,
2013-02-07 00:11:00,32.0,28.0,30.10,SE,142,10.0,15.0,85,0.00,,,0.00,,2013-02-07 06:11:00,
2013-02-07 00:22:00,32.0,28.0,30.09,SSE,148,11.0,16.0,85,0.00,,,0.00,,2013-02-07 06:22:00,
2013-02-07 00:32:00,32.0,28.0,30.09,SSE,150,12.0,15.0,86,0.00,,,0.00,,2013-02-07 06:32:00,
2013-02-07 00:43:00,32.0,28.0,30.09,SSE,150,12.0,15.0,86,0.00,,,0.00,,2013-02-07 06:43:00,
2013-02-07 00:52:00,32.0,28.0,30.09,SE,136,10.0,16.0,86,0.00,,,0.00,,2013-02-07 06:52:00,
2013-02-07 01:01:00,32.0,28.0,30.08,SE,138,9.0,12.0,86,0.00,,,0.00,,2013-02-07 07:01:00,
2013-02-07 01:11:00,32.0,28.0,30.08,SSE,156,8.0,12.0,86,0.00,,,0.00,,2013-02-07 07:11:00,
2013-02-07 01:22:00,32.0,28.0,30.08,SSE,156,8.0,12.0,86,0.00,,,0.00,,2013-02-07 07:22:00,
2013-02-07 01:32:00,32.0,29.0,30.08,SSE,149,8.0,11.0,87,0.00,,,0.00,,2013-02-07 07:32:00,
2013-02-07 01:42:00,32.0,29.0,30.08,SSE,149,8.0,11.0,87,0.00,,,0.00,,2013-02-07 07:42:00,
2013-02-07 01:52:00,31.0,28.0,30.08,SE,146,8.0,11.0,87,0.00,,,0.00,,2013-02-07 07:52:00,
2013-02-07 02:01:00,31.0,28.0,30.08,SE,142,8.0,10.0,87,0.00,,,0.00,,2013-02-07 08:01:00,
2013-02-07 02:11:00,31.0,28.0,30.08,SE,142,8.0,10.0,87,0.00,,,0.00,,2013-02-07 08:11:00,
2013-02-07 02:21:00,31.0,28.0,30.07,SE,136,7.0,10.0,87,0.00,,,0.00,,2013-02-07 08:21:00,
2013-02-07 02:32:00,32.0,29.0,30.06,SE,140,10.0,13.0,87,0.00,,,0.00,,2013-02-07 08:32:00,
2013-02-07 02:42:00,32.0,29.0,30.06,SE,140,10.0,13.0,87,0.00,,,0.00,,2013-02-07 08:42:00,
2013-02-07 02:52:00,32.0,29.0,30.06,SE,130,9.0,15.0,87,0.00,,,0.00,,2013-02-07 08:52:00,
2013-02-07 03:01:00,32.0,29.0,30.05,SE,131,11.0,14.0,87,0.00,,,0.00,,2013-02-07 09:01:00,
2013-02-07 03:11:00,32.0,29.0,30.05,SE,131,11.0,14.0,87,0.00,,,0.00,,2013-02-07 09:11:00,
2013-02-07 03:21:00,32.0,29.0,30.05,SE,131,9.0,14.0,87,0.00,,,0.00,,2013-02-07 09:21:00,
2013-02-07 03:31:00,31.0,28.0,30.04,SE,138,11.0,14.0,87,0.00,,,0.00,,2013-02-07 09:31:00,
2013-02-07 03:41:00,31.0,28.0,30.04,SE,138,11.0,14.0,87,0.00,,,0.00,,2013-02-07 09:41:00,
2013-02-07 03:52:00,31.0,28.0,30.04,SE,134,10.0,13.0,87,0.00,,,0.00,,2013-02-07 09:52:00,
2013-02-07 04:01:00,31.0,28.0,30.04,SE,134,9.0,15.0,87,0.00,,,0.00,,2013-02-07 10:01:00,
2013-02-07 04:11:00,31.0,28.0,30.04,SE,134,9.0,15.0,87,0.00,,,0.00,,2013-02-07 10:11:00,
2013-02-07 04:22:00,32.0,29.0,30.04,SE,141,9.0,14.0,87,0.00,,,0.00,,2013-02-07 10:22:00,
2013-02-07 04:32:00,32.0,29.0,30.03,SE,134,12.0,17.0,87,0.00,,,0.00,,2013-02-07 10:32:00,
2013-02-07 04:42:00,32.0,29.0,30.03,SE,134,12.0,17.0,87,0.00,,,0.00,,2013-02-07 10:42:00,
2013-02-07 04:52:00,32.0,29.0,30.03,SE,136,11.0,16.0,87,0.00,,,0.00,,2013-02-07 10:52:00,
2013-02-07 05:01:00,32.0,29.0,30.03,SE,133,8.0,16.0,87,0.00,,,0.00,,2013-02-07 11:01:00,
2013-02-07 05:11:00,32.0,29.0,30.03,SE,133,8.0,16.0,87,0.00,,,0.00,,2013-02-07 11:11:00,
2013-02-07 05:22:00,32.0,29.0,30.03,SE,125,8.0,12.0,87,0.00,,,0.00,,2013-02-07 11:22:00,
2013-02-07 05:32:00,32.0,29.0,30.03,SE,129,6.0,9.0,87,0.00,,,0.00,,2013-02-07 11:32:00,
2013-02-07 05:44:00,32.0,29.0,30.03,SE,129,6.0,9.0,87,0.00,,,0.00,,2013-02-07 11:44:00,
2013-02-07 05:52:00,33.0,29.0,30.02,SE,140,12.0,15.0,86,0.00,,,0.00,,2013-02-07 11:52:00,
2013-02-07 06:02:00,33.0,29.0,30.02,SE,140,12.0,15.0,86,0.00,,,0.00,,2013-02-07 12:02:00,
2013-02-07 06:11:00,33.0,29.0,30.02,SE,140,12.0,15.0,86,0.00,,,0.00,,2013-02-07 12:11:00,
2013-02-07 06:22:00,33.0,29.0,30.03,SSE,155,4.0,12.0,86,0.00,,,0.00,,2013-02-07 12:22:00,
2013-02-07 06:32:00,33.0,29.0,30.03,SE,141,5.0,9.0,86,0.00,,,0.00,,2013-02-07 12:32:00,
2013-02-07 06:42:00,33.0,29.0,30.03,SE,141,5.0,9.0,86,0.00,,,0.00,,2013-02-07 12:42:00,
2013-02-07 06:53:00,33.0,29.0,30.03,SE,130,0.0,0.0,85,0.00,,,0.00,,2013-02-07 12:53:00,
2013-02-07 07:02:00,33.0,29.0,30.03,SE,130,0.0,0.0,86,0.00,,,0.00,,2013-02-07 13:02:00,
2013-02-07 07:12:00,33.0,29.0,30.03,SE,130,0.0,0.0,86,0.00,,,0.00,,2013-02-07 13:12:00,
2013-02-07 07:22:00,32.0,28.0,30.03,SE,130,0.0,0.0,86,0.00,,,0.00,,2013-02-07 13:22:00,
2013-02-07 07:32:00,32.0,29.0,30.02,SE,130,0.0,1.0,87,0.00,,,0.00,,2013-02-07 13:32:00,
2013-02-07 07:42:00,32.0,29.0,30.02,SE,130,0.0,1.0,87,0.00,,,0.00,,2013-02-07 13:42:00,
2013-02-07 07:52:00,33.0,30.0,30.02,SE,130,0.0,0.0,87,0.00,,,0.00,,2013-02-07 13:52:00,
2013-02-07 08:01:00,34.0,30.0,30.02,SE,130,0.0,0.0,86,0.00,,,0.00,,2013-02-07 14:01:00,
2013-02-07 08:11:00,34.0,30.0,30.02,SE,130,0.0,0.0,86,0.00,,,0.00,,2013-02-07 14:11:00,
2013-02-07 08:21:00,34.0,30.0,30.02,SE,130,0.0,5.0,85,0.00,,,0.00,,2013-02-07 14:21:00,
2013-02-07 08:32:00,34.0,30.0,30.02,SE,130,0.0,5.0,85,0.00,,,0.00,,2013-02-07 14:32:00,
2013-02-07 08:42:00,34.0,30.0,30.02,SE,130,0.0,5.0,85,0.00,,,0.00,,2013-02-07 14:42:00,
2013-02-07 08:52:00,34.0,30.0,30.02,SE,130,3.0,6.0,86,0.00,,,0.00,,2013-02-07 14:52:00,
2013-02-07 09:01:00,35.0,31.0,30.01,ESE,119,6.0,9.0,85,0.00,,,0.00,,2013-02-07 15:01:00,
2013-02-07 09:11:00,35.0,31.0,30.01,ESE,119,6.0,9.0,85,0.00,,,0.00,,2013-02-07 15:11:00,
2013-02-07 09:22:00,37.0,32.0,30.00,ESE,117,2.0,7.0,83,0.00,,,0.00,,2013-02-07 15:22:00,
2013-02-07 09:32:00,38.0,33.0,29.99,ESE,119,3.0,8.0,81,0.00,,,0.00,,2013-02-07 15:32:00,
2013-02-07 09:42:00,38.0,33.0,29.99,ESE,119,3.0,8.0,81,0.00,,,0.00,,2013-02-07 15:42:00,
2013-02-07 09:52:00,39.0,33.0,29.98,SE,134,8.0,10.0,80,0.00,,,0.00,,2013-02-07 15:52:00,
2013-02-07 10:01:00,39.0,34.0,29.98,SE,126,4.0,9.0,81,0.00,,,0.00,,2013-02-07 16:01:00,
2013-02-07 10:11:00,39.0,34.0,29.98,SE,126,4.0,9.0,81,0.00,,,0.00,,2013-02-07 16:11:00,
2013-02-07 10:21:00,39.0,33.0,29.98,SE,125,4.0,8.0,79,0.00,,,0.00,,2013-02-07 16:21:00,
2013-02-07 10:32:00,40.0,34.0,29.97,SE,140,7.0,9.0,79,0.00,,,0.00,,2013-02-07 16:32:00,
2013-02-07 10:41:00,40.0,34.0,29.97,SE,140,7.0,9.0,79,0.00,,,0.00,,2013-02-07 16:41:00,
2013-02-07 10:52:00,40.0,34.0,29.97,SE,134,8.0,12.0,78,0.00,,,0.00,,2013-02-07 16:52:00,
2013-02-07 11:01:00,42.0,35.0,29.97,SE,144,10.0,14.0,77,0.00,,,0.00,,2013-02-07 17:01:00,
2013-02-07 11:11:00,42.0,35.0,29.97,SE,144,10.0,14.0,77,0.00,,,0.00,,2013-02-07 17:11:00,
2013-02-07 11:21:00,44.0,37.0,29.96,SSE,163,10.0,14.0,76,0.00,,,0.00,,2013-02-07 17:21:00,
2013-02-07 11:31:00,45.0,37.0,29.95,SSE,152,9.0,12.0,74,0.00,,,0.00,,2013-02-07 17:31:00,
2013-02-07 11:42:00,45.0,37.0,29.95,SSE,152,9.0,12.0,74,0.00,,,0.00,,2013-02-07 17:42:00,
2013-02-07 11:52:00,45.0,37.0,29.93,SE,144,11.0,14.0,73,0.00,,,0.00,,2013-02-07 17:52:00,
2013-02-07 12:01:00,45.0,37.0,29.93,SE,144,11.0,14.0,73,0.00,,,0.00,,2013-02-07 18:01:00,
2013-02-07 12:11:00,45.0,37.0,29.93,SE,144,11.0,14.0,73,0.00,,,0.00,,2013-02-07 18:11:00,
2013-02-07 12:23:00,46.0,39.0,29.91,SE,141,8.0,11.0,75,0.00,,,0.00,,2013-02-07 18:23:00,
2013-02-07 12:31:00,47.0,39.0,29.90,SE,146,11.0,14.0,73,0.00,,,0.00,,2013-02-07 18:31:00,
2013-02-07 12:42:00,47.0,39.0,29.90,SE,146,11.0,14.0,73,0.00,,,0.00,,2013-02-07 18:42:00,
2013-02-07 12:52:00,48.0,40.0,29.89,SE,144,10.0,14.0,73,0.00,,,0.00,,2013-02-07 18:52:00,
2013-02-07 13:01:00,49.0,40.0,29.88,SE,126,11.0,14.0,72,0.00,,,0.00,,2013-02-07 19:01:00,
2013-02-07 13:11:00,49.0,40.0,29.88,SE,126,11.0,14.0,72,0.00,,,0.00,,2013-02-07 19:11:00,
2013-02-07 13:22:00,49.0,40.0,29.87,SE,136,11.0,15.0,72,0.00,,,0.00,,2013-02-07 19:22:00,
2013-02-07 13:32:00,50.0,41.0,29.86,SSE,148,11.0,15.0,71,0.00,,,0.00,,2013-02-07 19:32:00,
2013-02-07 13:41:00,50.0,41.0,29.86,SSE,148,11.0,15.0,71,0.00,,,0.00,,2013-02-07 19:41:00,
2013-02-07 13:52:00,51.0,42.0,29.85,SE,131,10.0,14.0,72,0.00,,,0.00,,2013-02-07 19:52:00,
2013-02-07 14:01:00,52.0,42.0,29.84,South,171,9.0,12.0,69,0.00,,,0.00,,2013-02-07 20:01:00,
2013-02-07 14:11:00,52.0,42.0,29.84,South,171,9.0,12.0,69,0.00,,,0.00,,2013-02-07 20:11:00,
2013-02-07 14:22:00,52.0,42.0,29.83,South,171,9.0,14.0,68,0.00,,,0.00,,2013-02-07 20:22:00,
2013-02-07 14:31:00,52.0,43.0,29.83,South,178,9.0,13.0,71,0.00,,,0.00,,2013-02-07 20:31:00,
2013-02-07 14:41:00,52.0,43.0,29.83,South,178,9.0,13.0,71,0.00,,,0.00,,2013-02-07 20:41:00,
2013-02-07 14:52:00,52.0,43.0,29.82,SSE,168,10.0,14.0,70,0.00,,,0.00,,2013-02-07 20:52:00,
2013-02-07 15:01:00,52.0,43.0,29.82,South,181,9.0,11.0,71,0.00,,,0.00,,2013-02-07 21:01:00,
2013-02-07 15:11:00,52.0,43.0,29.82,South,181,9.0,11.0,71,0.00,,,0.00,,2013-02-07 21:11:00,
2013-02-07 15:21:00,51.0,43.0,29.81,South,176,7.0,11.0,73,0.00,,,0.00,,2013-02-07 21:21:00,
2013-02-07 15:31:00,50.0,43.0,29.81,South,179,6.0,9.0,76,0.00,,,0.00,,2013-02-07 21:31:00,
2013-02-07 15:42:00,50.0,43.0,29.81,South,179,6.0,9.0,76,0.00,,,0.00,,2013-02-07 21:42:00,
2013-02-07 15:52:00,50.0,43.0,29.80,South,188,6.0,8.0,76,0.00,,,0.00,,2013-02-07 21:52:00,
2013-02-07 16:02:00,49.0,42.0,29.80,South,188,3.0,6.0,76,0.00,,,0.00,,2013-02-07 22:02:00,
2013-02-07 16:11:00,49.0,42.0,29.80,South,188,3.0,6.0,76,0.00,,,0.00,,2013-02-07 22:11:00,
2013-02-07 16:21:00,48.0,42.0,29.79,South,188,3.0,5.0,79,0.00,,,0.00,,2013-02-07 22:21:00,
2013-02-07 16:32:00,46.0,41.0,29.80,West,266,8.0,10.0,83,0.00,,,0.00,,2013-02-07 22:32:00,
2013-02-07 16:42:00,46.0,41.0,29.80,West,266,8.0,10.0,83,0.00,,,0.00,,2013-02-07 22:42:00,
2013-02-07 16:52:00,45.0,41.0,29.80,West,261,3.0,11.0,87,0.00,,,0.00,,2013-02-07 22:52:00,
2013-02-07 17:01:00,45.0,41.0,29.80,West,261,3.0,11.0,87,0.00,,,0.00,,2013-02-07 23:01:00,
2013-02-07 17:11:00,45.0,41.0,29.80,West,261,3.0,11.0,87,0.00,,,0.00,,2013-02-07 23:11:00,
2013-02-07 17:21:00,43.0,40.0,29.80,WSW,252,8.0,11.0,90,0.02,,,0.02,,2013-02-07 23:21:00,
2013-02-07 17:32:00,43.0,41.0,29.80,WSW,249,8.0,13.0,91,0.03,,,0.03,,2013-02-07 23:32:00,
2013-02-07 17:42:00,43.0,41.0,29.80,WSW,249,8.0,13.0,91,0.03,,,0.03,,2013-02-07 23:42:00,
2013-02-07 17:52:00,43.0,41.0,29.82,WSW,250,9.0,13.0,92,0.05,,,0.05,,2013-02-07 23:52:00,
2013-02-07 18:01:00,42.0,40.0,29.81,West,265,6.0,11.0,92,0.06,,,0.07,,2013-02-08 00:01:00,
2013-02-07 18:11:00,42.0,40.0,29.81,West,265,6.0,11.0,92,0.06,,,0.07,,2013-02-08 00:11:00,
2013-02-07 18:21:00,42.0,40.0,29.82,West,263,7.0,13.0,92,0.06,,,0.08,,2013-02-08 00:21:00,
2013-02-07 18:31:00,41.0,39.0,29.82,West,264,8.0,12.0,92,0.07,,,0.10,,2013-02-08 00:31:00,
2013-02-07 18:42:00,41.0,39.0,29.82,West,264,8.0,12.0,92,0.07,,,0.10,,2013-02-08 00:42:00,
2013-02-07 18:52:00,41.0,39.0,29.82,WSW,252,10.0,15.0,93,0.07,,,0.12,,2013-02-08 00:52:00,
2013-02-07 19:01:00,41.0,39.0,29.82,West,261,9.0,14.0,92,0.06,,,0.13,,2013-02-08 01:01:00,
2013-02-07 19:11:00,41.0,39.0,29.82,West,261,9.0,14.0,92,0.06,,,0.13,,2013-02-08 01:11:00,
2013-02-07 19:21:00,40.0,38.0,29.82,West,279,10.0,13.0,92,0.06,,,0.14,,2013-02-08 01:21:00,
2013-02-07 19:31:00,40.0,38.0,29.83,WSW,258,11.0,17.0,93,0.05,,,0.15,,2013-02-08 01:31:00,
2013-02-07 19:41:00,40.0,38.0,29.83,WSW,258,11.0,17.0,93,0.05,,,0.15,,2013-02-08 01:41:00,
2013-02-07 19:52:00,39.0,37.0,29.83,WNW,282,8.0,14.0,93,0.04,,,0.16,,2013-02-08 01:52:00,
2013-02-07 20:01:00,39.0,37.0,29.82,West,281,9.0,14.0,93,0.04,,,0.17,,2013-02-08 02:01:00,
2013-02-07 20:11:00,39.0,37.0,29.82,West,281,9.0,14.0,93,0.04,,,0.17,,2013-02-08 02:11:00,
2013-02-07 20:21:00,39.0,37.0,29.82,WNW,296,9.0,13.0,93,0.03,,,0.17,,2013-02-08 02:21:00,
2013-02-07 20:32:00,38.0,36.0,29.83,WNW,302,9.0,16.0,93,0.02,,,0.17,,2013-02-08 02:32:00,
2013-02-07 20:42:00,38.0,36.0,29.83,WNW,302,9.0,16.0,93,0.02,,,0.17,,2013-02-08 02:42:00,
2013-02-07 20:52:00,37.0,35.0,29.83,WNW,294,11.0,17.0,92,0.01,,,0.17,,2013-02-08 02:52:00,
2013-02-07 21:01:00,37.0,35.0,29.83,WNW,298,10.0,17.0,92,0.00,,,0.17,,2013-02-08 03:01:00,
2013-02-07 21:12:00,37.0,35.0,29.83,WNW,298,10.0,17.0,92,0.00,,,0.17,,2013-02-08 03:12:00,
2013-02-07 21:22:00,36.0,34.0,29.84,NW,307,12.0,17.0,92,0.00,,,0.17,,2013-02-08 03:22:00,
2013-02-07 21:32:00,36.0,34.0,29.85,NW,306,11.0,16.0,92,0.00,,,0.17,,2013-02-08 03:32:00,
2013-02-07 21:41:00,36.0,34.0,29.85,NW,306,11.0,16.0,92,0.00,,,0.17,,2013-02-08 03:41:00,
2013-02-07 21:51:00,35.0,33.0,29.85,WNW,301,14.0,21.0,92,0.00,,,0.17,,2013-02-08 03:51:00,
2013-02-07 22:01:00,35.0,33.0,29.85,WNW,300,13.0,21.0,92,0.00,,,0.17,,2013-02-08 04:01:00,
2013-02-07 22:11:00,35.0,33.0,29.85,WNW,300,13.0,21.0,92,0.00,,,0.17,,2013-02-08 04:11:00,
2013-02-07 22:21:00,35.0,33.0,29.85,NW,311,11.0,15.0,92,0.00,,,0.17,,2013-02-08 04:21:00,
2013-02-07 22:32:00,34.0,32.0,29.86,NW,319,13.0,19.0,92,0.00,,,0.17,,2013-02-08 04:32:00,
2013-02-07 22:42:00,34.0,32.0,29.86,NW,319,13.0,19.0,92,0.00,,,0.17,,2013-02-08 04:42:00,
2013-02-07 22:51:00,34.0,32.0,29.86,NW,304,17.0,22.0,92,0.00,,,0.17,,2013-02-08 04:51:00,
2013-02-07 23:02:00,34.0,32.0,29.86,WNW,303,15.0,24.0,92,0.00,,,0.17,,2013-02-08 05:02:00,
2013-02-07 23:11:00,34.0,32.0,29.86,WNW,303,15.0,24.0,92,0.00,,,0.17,,2013-02-08 05:11:00,
2013-02-07 23:22:00,34.0,32.0,29.86,WNW,303,15.0,24.0,92,0.00,,,0.17,,2013-02-08 05:22:00,
2013-02-07 23:32:00,34.0,32.0,29.88,NW,310,14.0,21.0,92,0.00,,,0.17,,2013-02-08 05:32:00,
2013-02-07 23:42:00,34.0,32.0,29.88,NW,310,14.0,21.0,92,0.00,,,0.17,,2013-02-08 05:42:00,
2013-02-07 23:52:00,34.0,32.0,29.88,NW,323,14.0,22.0,91,0.00,,,0.17,,2013-02-08 05:52:00,